This demonstration page uses our WeatherBlox Daily Observations layout. Learn more.

Left ArrowRight Arrow

39.29038, -76.61219

Hourly Observations for March 18, 2018

Temp ( °F °C ) Dew Point ( °F °C ) Humidity (%) Winds ( mph kmh ) Pressure ( in mb ) Visibility ( mi km ) Precip ( " mm )
12:54 am 00:54 undefined 38 3.3 28 -2.2 68 68 undefined N/A 29.87 1012 N/A 0.00 0.00
1:54 am 01:54 undefined 39 3.9 25 -3.9 57 57 undefined N/A 29.87 1012 N/A 0.00 0.00
2:54 am 02:54 undefined 39 3.9 22 -5.6 50 50 undefined N/A 29.89 1012 N/A 0.00 0.00
3:54 am 03:54 undefined 39 3.9 19 -7.2 45 45 undefined N/A 29.90 1012 N/A 0.00 0.00
4:54 am 04:54 undefined 39 3.9 18 -7.8 43 43 undefined N/A 29.90 1013 N/A 0.00 0.00
5:54 am 05:54 undefined 38 3.3 17 -8.3 43 43 undefined N/A 29.92 1013 N/A 0.00 0.00
6:54 am 06:54 undefined 38 3.3 17 -8.3 43 43 undefined N/A 29.94 1014 N/A 0.00 0.00
7:54 am 07:54 undefined 38 3.3 17 -8.3 43 43 undefined N/A 29.97 1015 N/A 0.00 0.00
8:54 am 08:54 undefined 40 4.4 17 -8.3 40 40 undefined N/A 29.98 1015 N/A 0.00 0.00
9:54 am 09:54 undefined 42 5.6 16 -8.9 35 35 undefined N/A 29.99 1016 N/A 0.00 0.00
10:54 am 10:54 undefined 46 7.8 14 -10 27 27 undefined N/A 30.00 1016 N/A 0.00 0.00
11:54 am 11:54 undefined 49 9.4 17 -8.3 28 28 undefined N/A 30.00 1016 N/A 0.00 0.00
12:54 pm 12:54 undefined 50 10 14 -10 24 24 undefined N/A 29.99 1016 N/A 0.00 0.00
1:54 pm 13:54 undefined 52 11.1 15 -9.4 23 23 undefined N/A 29.97 1015 N/A 0.00 0.00
2:54 pm 14:54 undefined 54 12.2 14 -10 20 20 undefined N/A 29.94 1014 N/A 0.00 0.00
3:54 pm 15:54 undefined 56 13.3 15 -9.4 20 20 undefined N/A 29.92 1013 N/A 0.00 0.00
4:54 pm 16:54 undefined 57 13.9 12 -11.1 17 17 undefined N/A 29.91 1013 N/A 0.00 0.00
5:54 pm 17:54 undefined 56 13.3 13 -10.6 18 18 undefined N/A 29.91 1013 N/A 0.00 0.00
6:54 pm 18:54 undefined 56 13.3 15 -9.4 20 20 undefined N/A 29.91 1013 N/A 0.00 0.00
7:54 pm 19:54 undefined 50 10 20 -6.7 30 30 undefined N/A 29.91 1013 N/A 0.00 0.00
8:54 pm 20:54 undefined 48 8.9 21 -6.1 34 34 undefined N/A 29.91 1013 N/A 0.00 0.00
9:54 pm 21:54 undefined 47 8.3 20 -6.7 34 34 undefined N/A 29.92 1013 N/A 0.00 0.00
10:54 pm 22:54 undefined 45 7.2 21 -6.1 39 39 undefined N/A 29.92 1013 N/A 0.00 0.00
11:54 pm 23:54 undefined 45 7.2 20 -6.7 37 37 undefined N/A 29.92 1013 N/A 0.00 0.00

Powered by AerisWeather